AAL521 KLAX-KAUS

Flight info

Callsign AAL521
Flight time 2h 36m
Altitude 35000
Route DOTSS2 CNERY BLH SPTFR SSO PEQ Q4 FUSCO DILLO LAIKS4
Aircraft B738/M-SDE2E3FGHIRWXY/LB1

Departure

Time 2026-05-07 19:51
Airport Los Angeles International Airport (KLAX)

Arrival

Time 2026-05-07 22:28
Airport Austin Bergstrom International Airport (KAUS)
Time Latitude Longitude Altitude Speed Heading
2026-05-07 19:32 33.94711 -118.40742 92 ft 0 kts 191°
2026-05-07 19:37 33.94712 -118.40742 91 ft 0 kts 191°
2026-05-07 19:42 33.94731 -118.40737 91 ft 2 kts 192°
2026-05-07 19:43 33.94753 -118.40729 93 ft 4 kts 215°
2026-05-07 19:43 33.94769 -118.40706 92 ft 4 kts 255°
2026-05-07 19:43 33.94772 -118.40687 92 ft 1 kts 263°
2026-05-07 19:43 33.94772 -118.40684 92 ft 2 kts 263°
2026-05-07 19:46 33.94771 -118.40697 92 ft 5 kts 262°
2026-05-07 19:46 33.94764 -118.40757 95 ft 10 kts 262°
2026-05-07 19:46 33.94755 -118.40844 92 ft 4 kts 266°
2026-05-07 19:46 33.94765 -118.40868 94 ft 7 kts 318°
2026-05-07 19:47 33.94810 -118.40876 94 ft 6 kts 17°
2026-05-07 19:47 33.94836 -118.40839 93 ft 7 kts 71°
2026-05-07 19:47 33.94845 -118.40771 93 ft 9 kts 82°
2026-05-07 19:47 33.94853 -118.40690 93 ft 10 kts 84°
2026-05-07 19:48 33.94860 -118.40610 93 ft 9 kts 84°
2026-05-07 19:48 33.94868 -118.40533 93 ft 9 kts 81°
2026-05-07 19:48 33.94878 -118.40458 96 ft 9 kts 83°
2026-05-07 19:48 33.94885 -118.40385 93 ft 9 kts 84°
2026-05-07 19:49 33.94893 -118.40306 93 ft 10 kts 83°
2026-05-07 19:49 33.94901 -118.40221 93 ft 9 kts 82°
2026-05-07 19:49 33.94929 -118.40178 93 ft 5 kts 26°
2026-05-07 19:49 33.94942 -118.40175 94 ft 0 kts
2026-05-07 19:50 33.94963 -118.40175 98 ft 7 kts 354°
2026-05-07 19:50 33.95005 -118.40204 97 ft 8 kts 306°
2026-05-07 19:50 33.95011 -118.40258 97 ft 7 kts 264°
2026-05-07 19:51 33.94987 -118.40488 97 ft 64 kts 262°
2026-05-07 19:51 33.94899 -118.41340 99 ft 139 kts 262°
2026-05-07 19:51 33.94766 -118.42676 431 ft 174 kts 263°
2026-05-07 19:51 33.94614 -118.44178 1384 ft 181 kts 263°
2026-05-07 19:52 33.94462 -118.45742 2128 ft 200 kts 263°
2026-05-07 19:52 33.94314 -118.47524 2334 ft 226 kts 266°
2026-05-07 19:52 33.94251 -118.49451 2777 ft 239 kts 268°
2026-05-07 19:52 33.94194 -118.51503 3247 ft 255 kts 265°
2026-05-07 19:53 33.94030 -118.53692 3901 ft 266 kts 264°
2026-05-07 19:53 33.93845 -118.55918 4748 ft 268 kts 264°
2026-05-07 19:53 33.93661 -118.58168 5556 ft 272 kts 264°
2026-05-07 19:53 33.93436 -118.60447 6337 ft 276 kts 256°
2026-05-07 19:54 33.92560 -118.62495 7104 ft 280 kts 227°
2026-05-07 19:54 33.90956 -118.63815 7822 ft 285 kts 199°
2026-05-07 19:54 33.88992 -118.64171 8544 ft 289 kts 179°
2026-05-07 19:54 33.86976 -118.64037 9281 ft 292 kts 176°
2026-05-07 19:55 33.84933 -118.63819 9987 ft 296 kts 169°
2026-05-07 19:55 33.82968 -118.62948 10441 ft 312 kts 149°
2026-05-07 19:55 33.81097 -118.61458 10629 ft 334 kts 144°
2026-05-07 19:55 33.79126 -118.59790 10806 ft 356 kts 144°
2026-05-07 19:56 33.77048 -118.58048 11124 ft 371 kts 144°
2026-05-07 19:56 33.74893 -118.56278 11606 ft 378 kts 144°
2026-05-07 19:56 33.72699 -118.54492 12231 ft 382 kts 144°
2026-05-07 19:56 33.70695 -118.52464 12880 ft 382 kts 130°
2026-05-07 19:57 33.69141 -118.49880 13528 ft 382 kts 117°
2026-05-07 19:57 33.68099 -118.46949 14146 ft 383 kts 107°
2026-05-07 19:57 33.67242 -118.43863 14743 ft 386 kts 106°
2026-05-07 19:57 33.66386 -118.40842 15302 ft 390 kts 107°
2026-05-07 19:58 33.65482 -118.37745 15877 ft 393 kts 107°
2026-05-07 19:58 33.64699 -118.34603 16426 ft 394 kts 99°
2026-05-07 19:58 33.64374 -118.31341 16970 ft 393 kts 89°
2026-05-07 19:58 33.64375 -118.28059 17530 ft 395 kts 87°
2026-05-07 19:59 33.64400 -118.25215 17972 ft 397 kts 86°
2026-05-07 19:59 33.64420 -118.22915 18331 ft 399 kts 86°
2026-05-07 19:59 33.64443 -118.19589 18805 ft 402 kts 86°
2026-05-07 19:59 33.64458 -118.16217 19243 ft 406 kts 87°
2026-05-07 20:00 33.64464 -118.13173 19649 ft 409 kts 87°
2026-05-07 20:00 33.64466 -118.09788 20096 ft 412 kts 87°
2026-05-07 20:00 33.64464 -118.06337 20537 ft 415 kts 87°
2026-05-07 20:00 33.64460 -118.02852 20959 ft 418 kts 87°
2026-05-07 20:01 33.64456 -117.99710 21327 ft 421 kts 87°
2026-05-07 20:01 33.64450 -117.96181 21756 ft 423 kts 87°
2026-05-07 20:01 33.64443 -117.92639 22146 ft 426 kts 87°
2026-05-07 20:01 33.64436 -117.89071 22517 ft 429 kts 87°
2026-05-07 20:02 33.64429 -117.86030 22834 ft 431 kts 87°
2026-05-07 20:02 33.64423 -117.83474 23092 ft 433 kts 87°
2026-05-07 20:02 33.64409 -117.81751 23265 ft 434 kts 89°
2026-05-07 20:03 33.64405 -117.81573 23282 ft 435 kts 89°
2026-05-07 20:03 33.64230 -117.79072 23515 ft 439 kts 95°
2026-05-07 20:03 33.64028 -117.77670 23639 ft 442 kts 99°
2026-05-07 20:03 33.63200 -117.74103 23991 ft 446 kts 103°
2026-05-07 20:04 33.62288 -117.70537 24322 ft 448 kts 104°
2026-05-07 20:04 33.61366 -117.66953 24660 ft 451 kts 104°
2026-05-07 20:04 33.60448 -117.63350 24976 ft 453 kts 103°
2026-05-07 20:04 33.60322 -117.62852 25018 ft 453 kts 103°
2026-05-07 20:05 33.59452 -117.59385 25322 ft 455 kts 103°
2026-05-07 20:05 33.58546 -117.55744 25627 ft 457 kts 103°
2026-05-07 20:05 33.57641 -117.52092 25967 ft 458 kts 103°
2026-05-07 20:05 33.56729 -117.48405 26263 ft 460 kts 103°
2026-05-07 20:06 33.55816 -117.44722 26534 ft 462 kts 103°
2026-05-07 20:06 33.54895 -117.41015 26793 ft 465 kts 103°
2026-05-07 20:06 33.54767 -117.40499 26828 ft 465 kts 103°
2026-05-07 20:06 33.54601 -117.39831 26883 ft 465 kts 103°
2026-05-07 20:07 33.53673 -117.36103 27137 ft 467 kts 103°
2026-05-07 20:07 33.52739 -117.32357 27412 ft 469 kts 103°
2026-05-07 20:07 33.51814 -117.28652 27676 ft 470 kts 103°
2026-05-07 20:07 33.50904 -117.24887 27934 ft 471 kts 100°
2026-05-07 20:08 33.50356 -117.21022 28144 ft 468 kts 91°
2026-05-07 20:08 33.50272 -117.17140 28433 ft 466 kts 87°
2026-05-07 20:08 33.50259 -117.13262 28803 ft 464 kts 87°
2026-05-07 20:08 33.50256 -117.11834 28942 ft 464 kts 87°
2026-05-07 20:09 33.50246 -117.09069 29203 ft 463 kts 87°
2026-05-07 20:09 33.50227 -117.05949 29507 ft 462 kts 87°
2026-05-07 20:10 33.50191 -117.02097 29845 ft 461 kts 87°
2026-05-07 20:10 33.50172 -117.00468 29983 ft 461 kts 87°
2026-05-07 20:10 33.50123 -116.96630 30312 ft 460 kts 87°
2026-05-07 20:10 33.50067 -116.92794 30640 ft 458 kts 87°
2026-05-07 20:11 33.50008 -116.88973 30975 ft 457 kts 87°
2026-05-07 20:11 33.49939 -116.84569 31377 ft 455 kts 87°
2026-05-07 20:11 33.49879 -116.80786 31657 ft 454 kts 87°
2026-05-07 20:12 33.49818 -116.76999 31951 ft 453 kts 87°
2026-05-07 20:12 33.49757 -116.73232 32285 ft 452 kts 87°
2026-05-07 20:12 33.49694 -116.69479 32635 ft 450 kts 87°
2026-05-07 20:12 33.49632 -116.65737 32922 ft 449 kts 87°
2026-05-07 20:13 33.49568 -116.61997 33177 ft 448 kts 87°
2026-05-07 20:13 33.49503 -116.58268 33470 ft 447 kts 87°
2026-05-07 20:13 33.49436 -116.54553 33812 ft 444 kts 87°
2026-05-07 20:13 33.49370 -116.50868 34112 ft 442 kts 87°
2026-05-07 20:14 33.49305 -116.47229 34269 ft 443 kts 87°
2026-05-07 20:14 33.49237 -116.43535 34403 ft 445 kts 87°
2026-05-07 20:14 33.49172 -116.39813 34527 ft 447 kts 87°
2026-05-07 20:14 33.49119 -116.36447 34686 ft 446 kts 87°
2026-05-07 20:15 33.49067 -116.32788 34920 ft 445 kts 87°
2026-05-07 20:15 33.48962 -116.25312 34930 ft 449 kts 87°
2026-05-07 20:16 33.48844 -116.17864 34930 ft 444 kts 87°
2026-05-07 20:16 33.48724 -116.10501 34923 ft 440 kts 87°
2026-05-07 20:17 33.48907 -116.03268 34914 ft 432 kts 77°
2026-05-07 20:17 33.49769 -115.99089 34919 ft 431 kts 68°
2026-05-07 20:18 33.51819 -115.92285 34922 ft 436 kts 67°
2026-05-07 20:18 33.53872 -115.85435 34912 ft 437 kts 68°
2026-05-07 20:19 33.55893 -115.78542 34920 ft 437 kts 68°
2026-05-07 20:19 33.57896 -115.71655 34923 ft 436 kts 68°
2026-05-07 20:20 33.59892 -115.64781 34921 ft 437 kts 68°
2026-05-07 20:20 33.61544 -115.57805 34922 ft 440 kts 78°
2026-05-07 20:21 33.61721 -115.50430 34935 ft 445 kts 88°
2026-05-07 20:21 33.61479 -115.43008 34929 ft 445 kts 88°
2026-05-07 20:22 33.61253 -115.35602 34938 ft 445 kts 88°
2026-05-07 20:22 33.61055 -115.28229 34924 ft 445 kts 88°
2026-05-07 20:23 33.60862 -115.20803 34928 ft 445 kts 88°
2026-05-07 20:23 33.60664 -115.13374 34933 ft 444 kts 88°
2026-05-07 20:24 33.60462 -115.05974 34942 ft 443 kts 88°
2026-05-07 20:24 33.60256 -114.98627 34944 ft 443 kts 88°
2026-05-07 20:25 33.60045 -114.91241 34941 ft 442 kts 88°
2026-05-07 20:25 33.59831 -114.83872 34949 ft 442 kts 88°
2026-05-07 20:26 33.59587 -114.76498 34947 ft 443 kts 91°
2026-05-07 20:26 33.58403 -114.69195 34947 ft 447 kts 99°
2026-05-07 20:27 33.56972 -114.61938 34948 ft 447 kts 99°
2026-05-07 20:27 33.55568 -114.54697 34947 ft 446 kts 98°
2026-05-07 20:28 33.54184 -114.47439 34946 ft 446 kts 98°
2026-05-07 20:28 33.52803 -114.40182 34947 ft 446 kts 98°
2026-05-07 20:29 33.51421 -114.32937 34953 ft 446 kts 98°
2026-05-07 20:29 33.50041 -114.25736 34950 ft 446 kts 98°
2026-05-07 20:30 33.48651 -114.18503 34950 ft 445 kts 98°
2026-05-07 20:30 33.47258 -114.11279 34955 ft 445 kts 98°
2026-05-07 20:31 33.45859 -114.04056 34949 ft 445 kts 99°
2026-05-07 20:31 33.44453 -113.96821 34949 ft 446 kts 99°
2026-05-07 20:32 33.43046 -113.89590 34948 ft 446 kts 99°
2026-05-07 20:32 33.41632 -113.82356 34943 ft 446 kts 99°
2026-05-07 20:33 33.40217 -113.75135 34936 ft 446 kts 99°
2026-05-07 20:33 33.38733 -113.67975 34944 ft 446 kts 101°
2026-05-07 20:34 33.37045 -113.60821 34930 ft 447 kts 102°
2026-05-07 20:34 33.35331 -113.53660 34944 ft 447 kts 102°
2026-05-07 20:35 33.33648 -113.46551 34943 ft 447 kts 102°
2026-05-07 20:35 33.31965 -113.39395 34945 ft 447 kts 102°
2026-05-07 20:36 33.30278 -113.32222 34950 ft 448 kts 102°
2026-05-07 20:36 33.28585 -113.25047 34945 ft 448 kts 102°
2026-05-07 20:37 33.26887 -113.17871 34946 ft 449 kts 103°
2026-05-07 20:37 33.25181 -113.10684 34955 ft 449 kts 103°
2026-05-07 20:38 33.23482 -113.03543 34949 ft 450 kts 103°
2026-05-07 20:38 33.21764 -112.96348 34953 ft 450 kts 103°
2026-05-07 20:39 33.20040 -112.89146 34950 ft 451 kts 103°
2026-05-07 20:39 33.18308 -112.81929 34957 ft 451 kts 103°
2026-05-07 20:40 33.16587 -112.74777 34951 ft 451 kts 104°
2026-05-07 20:40 33.14849 -112.67573 34955 ft 451 kts 104°
2026-05-07 20:41 33.13109 -112.60385 34951 ft 451 kts 104°
2026-05-07 20:41 33.11366 -112.53207 34951 ft 450 kts 104°
2026-05-07 20:42 33.09620 -112.46035 34955 ft 450 kts 104°
2026-05-07 20:42 33.07868 -112.38858 34954 ft 451 kts 104°
2026-05-07 20:43 33.06125 -112.31732 34951 ft 450 kts 104°
2026-05-07 20:43 33.04363 -112.24552 34953 ft 450 kts 105°
2026-05-07 20:44 33.02602 -112.17395 34960 ft 450 kts 105°
2026-05-07 20:44 33.00836 -112.10234 34970 ft 450 kts 105°
2026-05-07 20:45 32.99068 -112.03081 34969 ft 450 kts 105°
2026-05-07 20:45 32.97303 -111.95970 34970 ft 450 kts 106°
2026-05-07 20:46 32.95519 -111.88798 34996 ft 451 kts 107°
2026-05-07 20:46 32.93726 -111.81612 34983 ft 453 kts 107°
2026-05-07 20:47 32.91924 -111.74402 34976 ft 455 kts 107°
2026-05-07 20:47 32.90418 -111.68394 34974 ft 456 kts 107°
2026-05-07 20:48 32.88300 -111.59973 34956 ft 457 kts 107°
2026-05-07 20:48 32.86768 -111.53897 34947 ft 458 kts 107°
2026-05-07 20:49 32.84932 -111.46625 34935 ft 459 kts 107°
2026-05-07 20:49 32.83088 -111.39348 34932 ft 460 kts 108°
2026-05-07 20:50 32.81241 -111.32078 34944 ft 460 kts 108°
2026-05-07 20:50 32.79399 -111.24848 34944 ft 459 kts 108°
2026-05-07 20:51 32.77538 -111.17560 34951 ft 459 kts 108°
2026-05-07 20:51 32.75677 -111.10293 34965 ft 460 kts 108°
2026-05-07 20:52 32.73811 -111.03024 34981 ft 459 kts 109°
2026-05-07 20:52 32.71954 -110.95814 35000 ft 460 kts 109°
2026-05-07 20:53 32.70078 -110.88544 35015 ft 461 kts 109°
2026-05-07 20:53 32.68191 -110.81256 35040 ft 462 kts 109°
2026-05-07 20:54 32.66297 -110.73958 35055 ft 463 kts 110°
2026-05-07 20:54 32.64392 -110.66638 35068 ft 464 kts 110°
2026-05-07 20:55 32.62492 -110.59353 35072 ft 465 kts 110°
2026-05-07 20:55 32.60569 -110.51997 35077 ft 467 kts 110°
2026-05-07 20:56 32.58641 -110.44650 35068 ft 469 kts 111°
2026-05-07 20:56 32.56693 -110.37242 35069 ft 471 kts 111°
2026-05-07 20:57 32.54734 -110.29809 35060 ft 473 kts 111°
2026-05-07 20:57 32.52765 -110.22360 35046 ft 474 kts 111°
2026-05-07 20:58 32.50783 -110.14886 35048 ft 475 kts 112°
2026-05-07 20:58 32.48802 -110.07433 35047 ft 475 kts 112°
2026-05-07 20:59 32.46815 -109.99977 35043 ft 475 kts 112°
2026-05-07 20:59 32.44823 -109.92518 35041 ft 475 kts 113°
2026-05-07 21:00 32.42826 -109.85062 35058 ft 475 kts 113°
2026-05-07 21:00 32.40831 -109.77643 35057 ft 476 kts 113°
2026-05-07 21:01 32.38819 -109.70161 35054 ft 477 kts 113°
2026-05-07 21:01 32.36799 -109.62685 35057 ft 477 kts 113°
2026-05-07 21:02 32.34771 -109.55206 35043 ft 478 kts 113°
2026-05-07 21:02 32.32739 -109.47712 35049 ft 478 kts 113°
2026-05-07 21:03 32.30701 -109.40221 35047 ft 478 kts 113°
2026-05-07 21:03 32.28659 -109.32732 35043 ft 478 kts 114°
2026-05-07 21:04 32.26700 -109.25216 35039 ft 482 kts 108°
2026-05-07 21:04 32.25688 -109.17378 35046 ft 487 kts 103°
2026-05-07 21:05 32.24843 -109.09438 35057 ft 488 kts 103°
2026-05-07 21:05 32.23956 -109.01481 35053 ft 489 kts 103°
2026-05-07 21:06 32.23018 -108.93516 35060 ft 490 kts 104°
2026-05-07 21:06 32.22054 -108.85531 35056 ft 491 kts 104°
2026-05-07 21:07 32.21087 -108.77571 35068 ft 493 kts 104°
2026-05-07 21:07 32.20105 -108.69523 35063 ft 496 kts 104°
2026-05-07 21:08 32.19121 -108.61478 35066 ft 498 kts 105°
2026-05-07 21:08 32.18124 -108.53371 35072 ft 500 kts 105°
2026-05-07 21:09 32.17123 -108.45231 35071 ft 501 kts 105°
2026-05-07 21:09 32.16111 -108.37076 35068 ft 501 kts 105°
2026-05-07 21:10 32.15100 -108.28986 35083 ft 501 kts 106°
2026-05-07 21:10 32.14078 -108.20854 35074 ft 501 kts 106°
2026-05-07 21:11 32.13052 -108.12710 35074 ft 500 kts 106°
2026-05-07 21:11 32.11508 -108.00543 35081 ft 499 kts 106°
2026-05-07 21:12 32.10478 -107.92490 35078 ft 499 kts 107°
2026-05-07 21:12 32.09437 -107.84394 35070 ft 499 kts 107°
2026-05-07 21:13 32.08389 -107.76287 35074 ft 499 kts 107°
2026-05-07 21:13 32.07339 -107.68199 35071 ft 499 kts 107°
2026-05-07 21:14 32.06285 -107.60118 35069 ft 499 kts 106°
2026-05-07 21:14 32.05223 -107.52032 35070 ft 500 kts 107°
2026-05-07 21:15 32.04156 -107.43937 35069 ft 500 kts 107°
2026-05-07 21:15 32.03083 -107.35845 35076 ft 499 kts 107°
2026-05-07 21:16 32.02005 -107.27749 35083 ft 500 kts 107°
2026-05-07 21:16 32.00926 -107.19692 35074 ft 500 kts 107°
2026-05-07 21:17 31.99835 -107.11585 35074 ft 501 kts 107°
2026-05-07 21:17 31.98739 -107.03477 35069 ft 502 kts 108°
2026-05-07 21:18 31.97634 -106.95348 35078 ft 503 kts 108°
2026-05-07 21:18 31.96516 -106.87175 35075 ft 505 kts 108°
2026-05-07 21:19 31.95398 -106.79033 35071 ft 506 kts 108°
2026-05-07 21:19 31.94270 -106.70831 35076 ft 507 kts 108°
2026-05-07 21:20 31.93132 -106.62617 35077 ft 509 kts 108°
2026-05-07 21:20 31.91993 -106.54436 35075 ft 510 kts 108°
2026-05-07 21:21 31.90840 -106.46204 35051 ft 510 kts 109°
2026-05-07 21:21 31.89680 -106.37947 35049 ft 510 kts 109°
2026-05-07 21:22 31.88516 -106.29701 35040 ft 511 kts 109°
2026-05-07 21:22 31.87346 -106.21456 35037 ft 511 kts 109°
2026-05-07 21:23 31.86170 -106.13209 35041 ft 510 kts 109°
2026-05-07 21:23 31.84991 -106.04982 35048 ft 510 kts 109°
2026-05-07 21:24 31.83813 -105.96790 35038 ft 510 kts 109°
2026-05-07 21:24 31.82625 -105.88586 35041 ft 509 kts 109°
2026-05-07 21:25 31.81430 -105.80377 35043 ft 508 kts 109°
2026-05-07 21:25 31.80236 -105.72196 35033 ft 508 kts 109°
2026-05-07 21:26 31.79038 -105.64021 35044 ft 507 kts 109°
2026-05-07 21:26 31.77836 -105.55865 35048 ft 507 kts 109°
2026-05-07 21:27 31.76624 -105.47689 35043 ft 507 kts 109°
2026-05-07 21:27 31.75416 -105.39576 35035 ft 508 kts 109°
2026-05-07 21:28 31.74193 -105.31388 35041 ft 508 kts 109°
2026-05-07 21:28 31.72962 -105.23185 35043 ft 509 kts 109°
2026-05-07 21:29 31.71723 -105.14975 35039 ft 511 kts 109°
2026-05-07 21:29 31.70481 -105.06763 35051 ft 511 kts 109°
2026-05-07 21:30 31.69231 -104.98540 35047 ft 512 kts 110°
2026-05-07 21:30 31.67969 -104.90289 35054 ft 513 kts 110°
2026-05-07 21:31 31.66710 -104.82090 35057 ft 515 kts 110°
2026-05-07 21:31 31.65433 -104.73808 35061 ft 516 kts 110°
2026-05-07 21:32 31.64148 -104.65514 35064 ft 516 kts 110°
2026-05-07 21:32 31.62860 -104.57225 35062 ft 516 kts 110°
2026-05-07 21:33 31.61564 -104.48929 35062 ft 516 kts 110°
2026-05-07 21:33 31.60260 -104.40631 35067 ft 517 kts 110°
2026-05-07 21:34 31.58964 -104.32405 35078 ft 517 kts 110°
2026-05-07 21:34 31.57652 -104.24111 35080 ft 517 kts 110°
2026-05-07 21:35 31.56332 -104.15817 35066 ft 517 kts 110°
2026-05-07 21:35 31.55231 -104.08918 35069 ft 517 kts 110°
2026-05-07 21:36 31.53900 -104.00613 35062 ft 518 kts 110°
2026-05-07 21:36 31.52565 -103.92312 35071 ft 517 kts 110°
2026-05-07 21:37 31.51225 -103.84027 35070 ft 518 kts 110°
2026-05-07 21:37 31.49879 -103.75738 35064 ft 518 kts 110°
2026-05-07 21:38 31.48529 -103.67450 35070 ft 518 kts 110°
2026-05-07 21:38 31.47180 -103.59205 35060 ft 518 kts 110°
2026-05-07 21:39 31.45954 -103.50854 35067 ft 522 kts 107°
2026-05-07 21:39 31.44979 -103.42410 35068 ft 523 kts 106°
2026-05-07 21:40 31.44014 -103.33968 35066 ft 522 kts 107°
2026-05-07 21:40 31.42998 -103.25534 35066 ft 522 kts 107°
2026-05-07 21:41 31.41956 -103.17124 35067 ft 522 kts 107°
2026-05-07 21:41 31.40901 -103.08691 35059 ft 522 kts 107°
2026-05-07 21:42 31.39846 -103.00275 35062 ft 522 kts 107°
2026-05-07 21:42 31.38791 -102.91895 35067 ft 523 kts 107°
2026-05-07 21:43 31.37726 -102.83484 35066 ft 522 kts 107°
2026-05-07 21:43 31.36653 -102.75060 35074 ft 522 kts 107°
2026-05-07 21:44 31.35577 -102.66648 35071 ft 522 kts 107°
2026-05-07 21:44 31.34496 -102.58235 35075 ft 522 kts 107°
2026-05-07 21:45 31.33410 -102.49830 35085 ft 522 kts 107°
2026-05-07 21:45 31.32322 -102.41473 35082 ft 523 kts 107°
2026-05-07 21:46 31.31222 -102.33047 35091 ft 524 kts 107°
2026-05-07 21:46 31.30116 -102.24619 35089 ft 524 kts 107°
2026-05-07 21:47 31.29005 -102.16199 35101 ft 524 kts 107°
2026-05-07 21:47 31.27888 -102.07784 35095 ft 524 kts 107°
2026-05-07 21:48 31.26773 -101.99418 35097 ft 524 kts 107°
2026-05-07 21:48 31.25641 -101.90979 35103 ft 525 kts 107°
2026-05-07 21:49 31.24505 -101.82554 35101 ft 525 kts 107°
2026-05-07 21:49 31.23365 -101.74132 35102 ft 525 kts 107°
2026-05-07 21:50 31.22226 -101.65763 35107 ft 524 kts 107°
2026-05-07 21:50 31.21074 -101.57338 35115 ft 524 kts 107°
2026-05-07 21:51 31.19917 -101.48927 35112 ft 525 kts 107°
2026-05-07 21:51 31.18756 -101.40519 35111 ft 525 kts 107°
2026-05-07 21:52 31.17587 -101.32086 35109 ft 525 kts 107°
2026-05-07 21:52 31.16409 -101.23672 35114 ft 525 kts 107°
2026-05-07 21:53 31.15223 -101.15258 35112 ft 525 kts 107°
2026-05-07 21:53 31.14041 -101.06899 35112 ft 525 kts 107°
2026-05-07 21:54 31.12840 -100.98434 35109 ft 525 kts 107°
2026-05-07 21:54 31.11648 -100.90071 35110 ft 525 kts 107°
2026-05-07 21:55 31.10443 -100.81661 35107 ft 525 kts 107°
2026-05-07 21:55 31.09233 -100.73246 35115 ft 524 kts 107°
2026-05-07 21:56 31.08016 -100.64851 35109 ft 525 kts 107°
2026-05-07 21:56 31.06793 -100.56449 35110 ft 525 kts 107°
2026-05-07 21:57 31.05574 -100.48105 35110 ft 525 kts 107°
2026-05-07 21:57 31.04341 -100.39699 35112 ft 525 kts 107°
2026-05-07 21:58 31.03102 -100.31289 35112 ft 526 kts 107°
2026-05-07 21:58 31.01855 -100.22884 35113 ft 526 kts 107°
2026-05-07 21:59 31.00602 -100.14471 35117 ft 526 kts 107°
2026-05-07 21:59 30.99346 -100.06065 35121 ft 527 kts 107°
2026-05-07 22:00 30.98084 -99.97648 35121 ft 526 kts 107°
2026-05-07 22:00 30.96817 -99.89247 35116 ft 527 kts 107°
2026-05-07 22:01 30.95539 -99.80825 35122 ft 528 kts 107°
2026-05-07 22:01 30.94266 -99.72463 35124 ft 528 kts 107°
2026-05-07 22:02 30.93608 -99.68171 34657 ft 535 kts 107°
2026-05-07 22:02 30.92961 -99.63960 34022 ft 534 kts 107°
2026-05-07 22:02 30.92311 -99.59715 33358 ft 533 kts 107°
2026-05-07 22:02 30.91656 -99.55444 32638 ft 532 kts 107°
2026-05-07 22:03 30.91005 -99.51208 31905 ft 532 kts 107°
2026-05-07 22:03 30.90350 -99.46962 31145 ft 532 kts 107°
2026-05-07 22:03 30.89694 -99.42728 30364 ft 531 kts 107°
2026-05-07 22:03 30.89037 -99.38494 29546 ft 531 kts 107°
2026-05-07 22:04 30.88378 -99.34257 28680 ft 532 kts 106°
2026-05-07 22:04 30.87716 -99.30021 27773 ft 532 kts 105°
2026-05-07 22:04 30.87056 -99.25789 27016 ft 529 kts 105°
2026-05-07 22:04 30.86401 -99.21589 26369 ft 523 kts 105°
2026-05-07 22:05 30.85750 -99.17433 25709 ft 518 kts 104°
2026-05-07 22:05 30.85105 -99.13329 25069 ft 513 kts 104°
2026-05-07 22:05 30.84472 -99.09318 24427 ft 508 kts 104°
2026-05-07 22:05 30.83835 -99.05285 23775 ft 504 kts 104°
2026-05-07 22:06 30.83202 -99.01294 23133 ft 499 kts 104°
2026-05-07 22:06 30.82575 -98.97342 22484 ft 495 kts 103°
2026-05-07 22:06 30.81951 -98.93418 21847 ft 490 kts 103°
2026-05-07 22:06 30.81330 -98.89523 21337 ft 483 kts 103°
2026-05-07 22:07 30.80729 -98.85740 21157 ft 468 kts 104°
2026-05-07 22:07 30.80142 -98.82062 20958 ft 456 kts 104°
2026-05-07 22:07 30.79571 -98.78476 20747 ft 445 kts 103°
2026-05-07 22:07 30.79117 -98.74979 20356 ft 441 kts 100°
2026-05-07 22:08 30.78759 -98.71437 19910 ft 438 kts 99°
2026-05-07 22:08 30.78432 -98.67920 19456 ft 436 kts 99°
2026-05-07 22:08 30.78104 -98.64423 18974 ft 433 kts 99°
2026-05-07 22:08 30.77764 -98.60946 18498 ft 431 kts 100°
2026-05-07 22:09 30.77412 -98.57485 18016 ft 429 kts 100°
2026-05-07 22:09 30.77056 -98.54052 17550 ft 426 kts 100°
2026-05-07 22:09 30.76699 -98.50643 17085 ft 424 kts 100°
2026-05-07 22:09 30.76347 -98.47284 16629 ft 421 kts 100°
2026-05-07 22:10 30.75978 -98.43905 16165 ft 417 kts 103°
2026-05-07 22:10 30.75101 -98.40761 15766 ft 403 kts 120°
2026-05-07 22:10 30.73893 -98.37854 15421 ft 396 kts 120°
2026-05-07 22:10 30.72716 -98.34982 15069 ft 389 kts 120°
2026-05-07 22:11 30.71587 -98.32176 14714 ft 377 kts 120°
2026-05-07 22:11 30.70503 -98.29451 14391 ft 366 kts 120°
2026-05-07 22:11 30.69466 -98.26830 14066 ft 356 kts 119°
2026-05-07 22:11 30.68449 -98.24257 13771 ft 346 kts 120°
2026-05-07 22:12 30.67458 -98.21750 13480 ft 337 kts 120°
2026-05-07 22:12 30.66492 -98.19315 13208 ft 328 kts 118°
2026-05-07 22:12 30.65553 -98.16918 12929 ft 324 kts 120°
2026-05-07 22:12 30.64614 -98.14557 12655 ft 320 kts 119°
2026-05-07 22:13 30.63684 -98.12224 12378 ft 317 kts 119°
2026-05-07 22:13 30.62765 -98.09908 12113 ft 314 kts 119°
2026-05-07 22:13 30.61849 -98.07612 11850 ft 311 kts 119°
2026-05-07 22:13 30.60947 -98.05340 11587 ft 308 kts 119°
2026-05-07 22:14 30.60061 -98.03118 11324 ft 305 kts 118°
2026-05-07 22:14 30.59176 -98.00894 11059 ft 302 kts 118°
2026-05-07 22:14 30.58297 -97.98685 10803 ft 299 kts 118°
2026-05-07 22:14 30.57428 -97.96503 10546 ft 296 kts 117°
2026-05-07 22:15 30.56532 -97.94365 10284 ft 293 kts 125°
2026-05-07 22:15 30.55119 -97.92724 10045 ft 287 kts 150°
2026-05-07 22:15 30.53357 -97.91659 9824 ft 285 kts 157°
2026-05-07 22:15 30.51554 -97.90674 9574 ft 287 kts 156°
2026-05-07 22:16 30.49747 -97.89673 9326 ft 288 kts 155°
2026-05-07 22:16 30.47954 -97.88668 9067 ft 285 kts 155°
2026-05-07 22:16 30.46183 -97.87670 8810 ft 281 kts 154°
2026-05-07 22:16 30.44468 -97.86702 8566 ft 274 kts 154°
2026-05-07 22:17 30.42771 -97.85743 8330 ft 268 kts 154°
2026-05-07 22:17 30.41109 -97.84803 8096 ft 263 kts 154°
2026-05-07 22:17 30.39481 -97.83883 7867 ft 257 kts 154°
2026-05-07 22:17 30.37883 -97.82980 7649 ft 253 kts 154°
2026-05-07 22:18 30.36309 -97.82091 7426 ft 251 kts 154°
2026-05-07 22:18 30.33206 -97.80339 6937 ft 246 kts 154°
2026-05-07 22:18 30.31664 -97.79470 6685 ft 246 kts 154°
2026-05-07 22:19 30.30128 -97.78604 6440 ft 244 kts 153°
2026-05-07 22:19 30.29124 -97.78038 6307 ft 240 kts 153°
2026-05-07 22:19 30.27626 -97.77255 6058 ft 233 kts 163°
2026-05-07 22:19 30.25530 -97.77098 5738 ft 223 kts 178°
2026-05-07 22:20 30.24492 -97.77088 5564 ft 219 kts 178°
2026-05-07 22:20 30.22510 -97.77100 5220 ft 211 kts 179°
2026-05-07 22:20 30.21524 -97.77112 5024 ft 209 kts 179°
2026-05-07 22:20 30.20073 -97.77133 4658 ft 209 kts 179°
2026-05-07 22:21 30.18619 -97.77153 4317 ft 209 kts 179°
2026-05-07 22:21 30.17165 -97.77178 3966 ft 209 kts 179°
2026-05-07 22:21 30.15707 -97.77207 3622 ft 210 kts 179°
2026-05-07 22:21 30.14245 -97.77237 3276 ft 211 kts 179°
2026-05-07 22:22 30.12795 -97.77272 3029 ft 208 kts 179°
2026-05-07 22:22 30.11356 -97.77307 3013 ft 205 kts 179°
2026-05-07 22:22 30.09947 -97.77345 2988 ft 200 kts 179°
2026-05-07 22:22 30.08583 -97.77382 3003 ft 192 kts 177°
2026-05-07 22:23 30.07347 -97.76948 2993 ft 180 kts 137°
2026-05-07 22:23 30.06719 -97.75785 3024 ft 175 kts 96°
2026-05-07 22:23 30.06839 -97.74396 3018 ft 176 kts 75°
2026-05-07 22:23 30.07151 -97.73030 3002 ft 173 kts 73°
2026-05-07 22:24 30.07448 -97.71763 3014 ft 154 kts 73°
2026-05-07 22:24 30.07729 -97.70573 3014 ft 153 kts 73°
2026-05-07 22:24 30.08010 -97.69389 2989 ft 152 kts 73°
2026-05-07 22:24 30.08286 -97.68228 2981 ft 149 kts 73°
2026-05-07 22:25 30.08556 -97.67084 2857 ft 144 kts 73°
2026-05-07 22:25 30.08833 -97.66038 2625 ft 132 kts 63°
2026-05-07 22:25 30.09461 -97.65216 2136 ft 144 kts 30°
2026-05-07 22:25 30.10413 -97.65026 1947 ft 132 kts 353°
2026-05-07 22:26 30.11252 -97.65356 1971 ft 128 kts 339°
2026-05-07 22:26 30.12116 -97.65715 1867 ft 136 kts 350°
2026-05-07 22:26 30.13063 -97.65828 1819 ft 138 kts
2026-05-07 22:26 30.14037 -97.65733 1587 ft 144 kts
2026-05-07 22:27 30.15055 -97.65669 1266 ft 146 kts
2026-05-07 22:27 30.16067 -97.65689 945 ft 147 kts 360°
2026-05-07 22:27 30.17098 -97.65712 710 ft 148 kts
2026-05-07 22:27 30.18093 -97.65729 539 ft 136 kts 360°
2026-05-07 22:28 30.18953 -97.65751 528 ft 108 kts 358°
2026-05-07 22:28 30.19407 -97.65766 527 ft 18 kts 351°
2026-05-07 22:28 30.19443 -97.65847 527 ft 9 kts 275°
2026-05-07 22:28 30.19484 -97.65891 526 ft 8 kts 350°
2026-05-07 22:29 30.19539 -97.65893 526 ft 8 kts 358°
2026-05-07 22:29 30.19593 -97.65895 526 ft 8 kts 358°
2026-05-07 22:29 30.19644 -97.65897 526 ft 7 kts 358°
2026-05-07 22:29 30.19694 -97.65900 526 ft 7 kts 356°
2026-05-07 22:30 30.19742 -97.65903 526 ft 7 kts 357°
2026-05-07 22:30 30.19789 -97.65905 526 ft 7 kts 359°
2026-05-07 22:30 30.19834 -97.65916 526 ft 7 kts 321°
2026-05-07 22:30 30.19859 -97.65967 526 ft 8 kts 315°
2026-05-07 22:31 30.19907 -97.66004 526 ft 9 kts 315°
2026-05-07 22:31 30.19918 -97.66077 526 ft 10 kts 267°
2026-05-07 22:31 30.19917 -97.66164 526 ft 12 kts 270°
2026-05-07 22:31 30.19915 -97.66263 526 ft 13 kts 268°
2026-05-07 22:32 30.19911 -97.66373 526 ft 15 kts 268°
2026-05-07 22:32 30.19910 -97.66489 526 ft 14 kts 270°
2026-05-07 22:32 30.19908 -97.66601 526 ft 14 kts 269°
2026-05-07 22:32 30.19933 -97.66683 526 ft 10 kts 334°
2026-05-07 22:33 30.20002 -97.66689 526 ft 10 kts 358°
2026-05-07 22:33 30.20057 -97.66718 526 ft 9 kts 291°
2026-05-07 22:33 30.20067 -97.66792 526 ft 9 kts 278°
2026-05-07 22:33 30.20083 -97.66858 526 ft 6 kts 311°
2026-05-07 22:34 30.20121 -97.66865 526 ft 5 kts
2026-05-07 22:34 30.20153 -97.66858 526 ft 4 kts 11°
2026-05-07 22:34 30.20159 -97.66856 526 ft 0 kts 11°